This demonstration page uses our WeatherBlox Daily Observations layout. Learn more.

Left ArrowRight Arrow

41.12389, -100.76542

Hourly Observations for May 18, 2017

Temp ( °F °C ) Dew Point ( °F °C ) Humidity (%) Winds ( mph kmh ) Pressure ( in mb ) Visibility ( mi km ) Precip ( " mm )
12:11 am 00:11 Cloudy 52 11.1 47 8.3 83 83 N 15 24 29.83 1010 10 16 0.00 0.00
12:53 am 00:53 Cloudy 51 10.6 47 8.3 86 86 NNE 21 33 29.78 1009 10 16 0.00 0.00
1:00 am 01:00 Cloudy 51 10.6 47 8.3 86 86 N 18 30 29.80 1009 10 16 0.00 0.00
1:34 am 01:34 Cloudy 51 10.6 47 8.3 86 86 NNE 21 33 29.80 1009 10 16 0.00 0.00
1:53 am 01:53 Cloudy 51 10.6 46 7.8 83 83 NNE 15 24 29.79 1009 10 16 0.00 0.00
2:53 am 02:53 Cloudy 50 10 45 7.2 83 83 NNE 17 28 29.79 1009 10 16 0.00 0.00
3:48 am 03:48 Cloudy 48 9 46 8 94 94 NE 16 26 29.85 1011 10 16 0.00 0.00
3:53 am 03:53 Cloudy 49 9.4 46 7.8 90 90 NNE 16 26 29.81 1009 10 16 0.00 0.00
4:04 am 04:04 Cloudy 49 9.4 45 7.2 86 86 NE 13 20 29.83 1010 10 16 0.00 0.00
4:53 am 04:53 Cloudy 48 8.9 46 7.8 93 93 NE 15 24 29.81 1010 10 16 0.00 0.00
5:02 am 05:02 Cloudy 48 8.9 46 7.8 93 93 NE 17 28 29.85 1011 10 16 0.00 0.00
5:22 am 05:22 Cloudy 48 8.9 45 7.2 89 89 NE 15 24 29.85 1011 10 16 0.00 0.00
5:43 am 05:43 Cloudy 48 8.9 45 7.2 89 89 NNE 12 19 29.85 1011 10 16 0.00 0.00
5:53 am 05:53 Cloudy 48 8.9 45 7.2 89 89 NE 12 19 29.82 1010 10 16 0.00 0.00
6:06 am 06:06 Cloudy 48 8.9 45 7.2 89 89 NE 17 28 29.85 1011 10 16 0.00 0.00
6:53 am 06:53 Cloudy 48 8.9 44 6.7 86 86 NE 14 22 29.85 1011 10 16 0.00 0.00
7:53 am 07:53 Cloudy 48 8.9 44 6.7 86 86 NE 20 31 29.87 1011 10 16 0.00 0.00
8:53 am 08:53 Cloudy 48 8.9 45 7.2 89 89 NE 15 24 29.88 1012 10 16 0.00 0.00
9:07 am 09:07 Cloudy 48 8.9 44 6.7 86 86 NE 21 33 29.88 1012 10 16 0.00 0.00
9:51 am 09:51 Cloudy 48 9 45 7 87 87 NE 21 33 29.91 1013 10 16 0.00 0.00
9:53 am 09:53 Cloudy 48 8.9 44 6.7 86 86 NE 17 28 29.91 1013 10 16 0.00 0.00
10:53 am 10:53 Cloudy 49 9.4 44 6.7 83 83 ENE 21 33 29.90 1013 10 16 0.00 0.00
11:53 am 11:53 Cloudy 49 9.4 45 7.2 86 86 NE 20 31 29.91 1013 10 16 0.00 0.00
12:53 pm 12:53 Cloudy 50 10 44 6.7 80 80 ENE 16 26 29.93 1014 10 16 0.00 0.00
1:53 pm 13:53 Cloudy 49 9.4 44 6.7 83 83 ENE 21 33 29.91 1013 10 16 0.00 0.00
2:53 pm 14:53 Cloudy 49 9.4 45 7.2 86 86 ENE 20 31 29.92 1013 10 16 0.00 0.03
3:53 pm 15:53 Cloudy 50 10 45 7.2 83 83 ENE 16 26 29.91 1013 10 16 0.00 0.00
4:53 pm 16:53 Cloudy 49 9.4 46 7.8 90 90 ENE 16 26 29.94 1014 10 16 0.00 0.00
5:53 pm 17:53 Cloudy 49 9.4 46 7.8 90 90 NE 15 24 29.92 1013 9 14 0.00 0.03
6:41 pm 18:41 Cloudy with Light Rain 48 8.9 46 7.8 93 93 NE 15 24 29.94 1014 3 4 0.00 0.03
6:53 pm 18:53 Cloudy with Light Rain 48 8.9 47 8.3 96 96 ENE 13 20 29.94 1014 3 4 0.00 0.03
7:06 pm 19:06 Cloudy with Mist and Fog 48 8.9 47 8.3 96 96 NE 15 24 29.94 1014 3 5 0.00 0.03
7:53 pm 19:53 Cloudy 48 8.9 47 8.3 96 96 NE 18 30 29.95 1014 10 16 0.00 0.03
8:05 pm 20:05 Cloudy 48 8.9 46 7.8 93 93 NE 18 30 29.94 1014 10 16 0.00 0.00
8:41 pm 20:41 Cloudy with Light Rain 49 9.4 47 8.3 93 93 NE 20 31 29.94 1014 10 16 0.00 0.03
8:53 pm 20:53 Cloudy with Light Rain 49 9.4 47 8.3 93 93 NE 16 26 29.96 1014 10 16 0.00 0.03
9:04 pm 21:04 Cloudy with Light Rain 48 8.9 47 8.3 96 96 NE 16 26 29.97 1015 10 16 0.00 0.03
9:13 pm 21:13 Cloudy 49 9.4 47 8.3 93 93 NE 14 22 29.97 1015 10 16 0.01 0.25
9:45 pm 21:45 Cloudy 49 9.4 47 8.3 93 93 NE 13 20 29.97 1015 10 16 0.01 0.25
9:53 pm 21:53 Cloudy 49 9.4 47 8.3 93 93 NE 12 19 29.98 1015 10 16 0.01 0.25
10:44 pm 22:44 Cloudy with Mist and Fog 49 9.4 47 8.3 93 93 NE 10 17 29.97 1015 5 8 0.00 0.00
10:53 pm 22:53 Cloudy 49 9.4 47 8.3 93 93 NE 13 20 29.98 1015 7 11 0.00 0.00
11:38 pm 23:38 Cloudy 49 9.4 47 8.3 93 93 NE 13 20 29.97 1015 10 16 0.00 0.00
11:53 pm 23:53 Cloudy 49 9.4 47 8.3 93 93 NE 13 20 29.98 1015 10 16 0.00 0.00

Powered by AerisWeather